, SD

(GMT )
Rapid City

Weather History for KRAP - February, 2013

Change the Weather History Date:

Saturday, February 23, 2013

  Actual Average Record
Temperature  
Mean Temperature 29 °F 29 °F  
Max Temperature 46 °F 41 °F 67 °F (1958)
Min Temperature 12 °F 17 °F -14 °F (1965)
Degree Days  
Heating Degree Days 36 36  
Month to date heating degree days 816 877  
Since 1 July heating degree days 4809 5033  
Cooling Degree Days 0 0  
Month to date cooling degree days 0 0  
Year to date cooling degree days 0 0  
Moisture  
Dew Point 15 °F    
Average Humidity 55    
Maximum Humidity 84    
Minimum Humidity 25    
Precipitation  
Precipitation 0.00 in 0.02 in 0.25 in (1948)
Month to date precipitation 0.17 0.33  
Year to date precipitation 0.60 0.63  
Snow  
Snow 0.00 in 0.30 in 2.80 in (1986)
Month to date snowfall 3.7 4.5  
Since 1 July snowfall 20.3 22.1  
Snow Depth 0.00 in    
Sea Level Pressure  
Sea Level Pressure 29.76 in    
Wind  
Wind Speed 5 mph (North)    
Max Wind Speed 12 mph    
Max Gust Speed 15 mph    
Visibility 10 miles    
Events      
T = Trace of Precipitation, MM = Missing Value Source: NWS Daily Summary

Daily Weather History Graph

Daily Weather History Graph

Search for Another Location

Airport or City:

Trip Planner

Search our weather history database for the weather conditions in past years. The results will help you decide how hot, cold, wet, or windy it might be!

Date:

Astronomy

Feb. 23, 2013 Rise Set
Actual Time 6:38 AM MST 5:33 PM MST
Civil Twilight 6:09 AM MST 6:02 PM MST
Nautical Twilight 5:35 AM MST 6:35 PM MST
Astronomical Twilight 5:02 AM MST 7:09 PM MST
Moon 3:43 PM MST (2/23) 5:05 AM MST (2/23)
Length of Visible Light 11h 52m
Length of Day
10h 54m
Waxing Gibbous, 95% of the Moon is Illuminated
Feb 23
Waxing Gibbous
Feb 25
Full
Mar 4
Last Quarter
Mar 11
New
Mar 19
First Quarter

Hourly Weather History & Observations

Time (MST) Temp. Windchill Dew Point Humidity Pressure Visibility Wind Dir Wind Speed Gust Speed Precip Events Conditions
12:52 AM 17.1 °F 11.7 °F 10.9 °F 77% 29.83 in 10.0 mi NW 3.5 mph - N/A   Clear
1:52 AM 19.9 °F - 10.9 °F 68% 29.80 in 10.0 mi Calm Calm - N/A   Clear
2:52 AM 17.1 °F - 10.0 °F 74% 29.78 in 10.0 mi Calm Calm - N/A   Clear
3:52 AM 12.9 °F - 8.1 °F 81% 29.76 in 10.0 mi Calm Calm - N/A   Clear
4:52 AM 14.0 °F 5.1 °F 8.1 °F 77% 29.76 in 10.0 mi NW 5.8 mph - N/A   Clear
5:52 AM 19.9 °F 11.1 °F 9.0 °F 62% 29.75 in 10.0 mi WNW 6.9 mph - N/A   Clear
6:52 AM 19.9 °F 10.1 °F 10.0 °F 65% 29.75 in 10.0 mi WNW 8.1 mph - N/A   Clear
7:52 AM 27.0 °F 20.5 °F 16.0 °F 63% 29.75 in 10.0 mi WNW 5.8 mph - N/A   Clear
8:52 AM 34.0 °F 28.8 °F 17.1 °F 50% 29.74 in 10.0 mi WNW 5.8 mph - N/A   Clear
9:52 AM 39.0 °F - 14.0 °F 36% 29.73 in 10.0 mi Calm Calm - N/A   Clear
10:52 AM 41.0 °F - 19.0 °F 41% 29.73 in 10.0 mi Calm Calm - N/A   Clear
11:52 AM 43.0 °F 40.3 °F 10.0 °F 26% 29.72 in 10.0 mi SE 4.6 mph - N/A   Mostly Cloudy
12:52 PM 44.1 °F 41.5 °F 10.9 °F 26% 29.70 in 10.0 mi Variable 4.6 mph - N/A   Partly Cloudy
1:52 PM 44.1 °F 40.8 °F 12.9 °F 28% 29.68 in 10.0 mi East 5.8 mph - N/A   Clear
2:52 PM 44.1 °F - 10.9 °F 26% 29.69 in 10.0 mi Calm Calm - N/A   Clear
3:52 PM 44.1 °F 42.5 °F 12.0 °F 27% 29.71 in 10.0 mi East 3.5 mph - N/A   Mostly Cloudy
4:52 PM 41.0 °F 36.4 °F 15.1 °F 35% 29.74 in 10.0 mi East 6.9 mph - N/A   Mostly Cloudy
5:52 PM 37.9 °F 33.5 °F 17.1 °F 43% 29.75 in 10.0 mi ENE 5.8 mph - N/A   Overcast
6:52 PM 35.1 °F 29.3 °F 16.0 °F 46% 29.78 in 10.0 mi ENE 6.9 mph - N/A   Overcast
7:52 PM 33.1 °F 27.7 °F 19.9 °F 59% 29.79 in 10.0 mi SE 5.8 mph - N/A   Mostly Cloudy
8:52 PM 30.0 °F - 19.9 °F 66% 29.81 in 10.0 mi Calm Calm - N/A   Overcast
9:52 PM 30.0 °F 24.1 °F 21.0 °F 69% 29.82 in 10.0 mi NW 5.8 mph - N/A   Overcast
10:52 PM 33.1 °F 24.4 °F 24.1 °F 70% 29.82 in 10.0 mi NNW 11.5 mph - N/A   Overcast
11:52 PM 34.0 °F 25.5 °F 28.9 °F 82% 29.83 in 10.0 mi North 11.5 mph - N/A   Overcast